STARLINK-31517, 59213

Orbit data source: Space-Track

STARLINK-31517, 59213 is a payload satellite owned by SpaceX/Seattle (US) in LEO that was launched on Mon, 11 Mar 2024 UTC via an FALCON 9 launch vehicle from the Air Force Western Test Range (AFWTR). Payload-class satellites include a variety of spacecraft equipped with specific instruments for various scientific and technological missions. These include communications satellites like Starlink; space stations such as the ISS; scientific satellites like the Hubble; Earth observation satellites from companies like Planet Labs, Umbra, and HawkEye 360; GPS; miniature CubeSats for education and research; and military/defense satellites.

Loading next visibility...
Identifier
59213, 2024-046N
Orbit
LEO
Country
Flag of USUS
Related business
Manufacturer
SpaceX/Seattle
Mission
Operational Commercial Communications
Bus & Motor
STARLINK V2M, Unknown motor
Mass
730 kg wet, ~700 kg dry
Launch date (UTC)
2024-03-11 (2 years ago)
Launch vehicle
FALCON 9
Launch site
Air Force Western Test Range (AFWTR)
Object type
Payload
Rocket body
Debris
Shape & HBR
Box + 2 Pan, 17.7 m
Radar Cross Section
33.884 m², Large (>1 m²)

Expand to show TLE details & history
Last TLE update: 3 days ago

TLE from 3 days ago
0 STARLINK-31517
1 59213U 24046N   26170.91141223  .00001713  00000-0  61832-4 0  9991
2 59213  53.1607  38.8932 0001294  74.8827 285.2318 15.34401512128713
Epoch: 2026-06-19T21:52Z
TLE epoch observation values (Epoch: 2026-06-19T21:52:26.016Z)
Latitude
-0.00009°
Longitude
162.65114°
Altitude
463.368 km
Speed
7.636 km/s
True Right ascension
02h 35m 34s
True Declination
0° 00' 00"
Sunlit
Object was in daylight at epoch
Visualization orbit readout
Latitude
Unknown
Longitude
Unknown
Altitude
Unknown
Speed
Unknown
Apparent Right ascension
Unknown
Apparent Declination
Unknown
Sunlit
N/A
Visualization observer readout
Local Sidereal Time
23:09:17
Azimuth
Unknown
Elevation
Unknown
Doppler factor
Unknown
Orbital elements
Apogee altitude
463.841 km
Perigee altitude
462.07 km
Semi-major axis
6,841.093 km
Eccentricity
0.00013
Inclination
53.1607°
RAAN
38.8932°
Arg. of periapsis
74.8827°
True anomaly
285.21749°
Mean anomaly
285.2318°
Eccentric anomaly
285.22465°
Mean motion
3.83579 °/min
Orbital period
93.85 mins
BSTAR
0.000061832
Loading maneuver chart data...
Computing Atmospheric mass density...
Loading historical data...
Loading historical data...
Loading historical data...
Loading historical data...
Loading historical data...
Loading historical data...
Loading historical data...

Documentation

Showing up to 5 results
|